RH
56 51 44 36 27 22 16 16 18 15 17 17 17 18 17 19 22 25 24 21 20 19 19 21 23 31 43 51 54 56 57 52 41 31 26 21 22 19 18 18 18 18 17 19 19 20 25 27 31 34 38 46 50 54 55 56 62 69 70 66 60 53
50 47 49 43 30 27 21 17 18 16 17 17 17 18 17 20 22 25 24 21 20 20 24 24 24 33 43 53 58 59 60 58 48 37 32 27 27 26 23 23 21 21 21 20 22 27 38 47 47 48 50 53 57 59 60 62 61 61 65 63 53 48
50 52 59 59 42 33 26 20 17 15 17 17 17 19 17 20 22 25 23 22 22 22 28 27 26 32 43 57 60 58 58 59 55 45 40 37 34 34 32 31 28 26 25 25 31 38 49 61 59 58 58 59 65 61 57 61 60 60 62 55 47 42
57 63 62 68 58 42 30 24 24 21 22 19 17 18 18 19 22 26 24 23 23 22 30 34 33 39 50 60 58 54 56 57 58 56 54 49 45 44 41 38 38 35 35 43 51 54 62 72 70 65 61 62 65 57 57 65 63 59 55 48 42 32
56 64 63 73 74 57 40 38 45 42 35 31 26 21 19 21 22 26 28 27 24 26 38 46 50 58 63 62 56 56 60 59 58 60 58 57 59 56 53 53 55 54 55 63 64 61 65 67 67 66 61 58 55 51 57 66 63 55 51 46 36 23
51 62 65 73 77 65 51 51 58 54 43 39 36 26 19 21 26 27 29 29 29 39 51 56 62 67 67 63 62 61 61 62 60 60 57 61 68 61 62 71 73 70 67 71 67 57 58 56 55 60 64 62 52 48 51 56 56 49 46 41 26 18
49 62 65 66 73 69 60 59 59 56 45 39 32 23 22 29 39 36 28 27 32 48 58 61 65 65 64 61 64 63 61 64 59 55 55 62 69 60 62 71 69 67 61 62 60 52 53 54 52 54 61 60 50 48 49 50 50 45 43 36 21 18
43 58 65 61 66 67 63 62 60 53 43 39 31 23 33 42 50 49 37 32 37 50 56 58 62 65 67 59 55 57 56 58 54 52 55 57 61 55 57 62 58 58 54 52 53 53 54 54 54 51 51 50 43 43 48 50 51 49 44 34 23 19
36 49 60 54 59 67 62 61 59 50 40 39 33 27 38 46 53 58 51 46 45 48 49 52 58 65 69 58 53 57 55 54 51 53 58 55 55 54 56 60 56 58 59 54 51 53 51 50 52 47 44 45 40 40 48 49 47 50 46 36 30 23
35 43 49 42 54 67 62 62 58 50 44 36 32 40 50 53 59 66 64 59 54 49 43 44 55 67 69 59 57 61 62 63 56 55 56 52 54 55 54 55 53 58 62 57 53 52 48 49 51 45 43 43 39 40 45 42 38 43 42 35 30 24
36 39 43 44 56 65 66 69 64 56 49 37 38 57 66 62 66 72 71 61 54 50 44 45 58 70 68 62 66 63 61 66 59 54 53 51 55 54 52 52 52 55 54 51 52 51 48 49 49 46 44 39 34 35 34 31 31 32 30 29 28 23
41 41 44 51 59 66 71 74 71 62 52 47 51 68 72 66 70 75 71 59 50 44 41 49 61 69 67 62 69 68 64 65 57 53 54 55 57 53 53 54 52 49 44 45 49 48 49 51 49 47 44 38 35 31 24 22 24 22 22 26 26 21
46 49 51 57 62 69 77 75 72 64 58 62 65 72 72 68 74 76 69 58 49 40 39 56 65 66 67 63 66 67 68 69 60 55 57 56 58 57 56 52 47 45 43 46 51 50 50 52 54 49 39 32 28 24 20 19 20 20 20 22 22 21
48 53 58 63 66 72 78 75 71 68 67 72 74 75 71 71 75 71 66 57 44 40 44 60 69 66 67 70 68 64 68 72 60 54 55 55 57 56 50 46 45 47 46 49 52 51 50 52 53 43 29 21 20 19 19 19 20 20 21 21 22 23
51 55 60 65 70 75 79 76 73 73 74 76 78 76 71 73 68 56 60 61 51 52 55 62 70 71 70 70 64 61 67 66 54 49 52 52 52 50 46 44 44 43 45 49 51 48 42 37 32 26 20 18 19 19 20 20 21 21 22 22 23 24
53 56 61 67 73 78 80 78 75 72 73 73 72 71 70 71 62 53 60 65 63 65 67 68 71 74 74 68 60 63 67 61 53 50 52 48 39 38 38 33 30 25 29 37 39 38 30 20 18 19 18 19 20 20 21 21 21 22 22 23 24 25
56 57 62 70 76 78 78 79 78 73 70 66 60 60 66 66 60 62 66 65 67 70 71 74 75 73 72 68 62 65 67 60 55 51 49 38 22 21 22 18 18 17 17 21 23 24 20 17 19 19 19 20 20 21 21 21 22 23 23 24 25 27
59 56 62 72 76 73 72 76 78 74 69 59 50 49 57 65 65 67 69 68 71 74 75 77 78 71 64 64 63 62 62 60 58 49 38 25 14 16 16 15 17 17 16 17 19 19 18 19 20 20 21 21 21 22 22 22 24 24 25 27 28 30
60 54 60 69 71 73 73 73 74 75 73 57 48 49 51 62 71 70 71 74 75 76 78 77 75 69 61 61 60 58 60 61 56 40 24 17 16 17 16 16 17 16 18 18 19 20 19 20 21 21 22 22 22 23 23 25 26 27 29 30 32 34
61 57 62 66 71 79 78 74 73 76 80 62 47 55 59 65 74 72 72 78 79 77 79 78 74 68 62 61 61 61 60 54 42 27 17 17 17 17 16 17 17 18 19 19 20 21 20 21 21 21 21 22 23 24 26 28 30 32 34 35 36 37
68 63 65 67 71 78 76 75 74 72 79 66 44 53 70 77 79 76 76 80 80 77 78 79 75 67 62 63 63 62 58 44 28 18 18 21 20 17 17 18 18 19 19 20 23 22 20 21 20 19 20 22 24 27 31 34 36 38 39 40 40 39
74 71 69 66 67 71 69 71 71 69 75 65 50 63 83 86 81 78 80 80 79 78 78 79 74 66 63 64 63 63 54 32 18 18 23 29 26 19 17 18 19 20 22 23 23 21 19 17 18 20 23 27 32 37 39 39 43 44 43 41 39 37
77 79 75 71 69 69 66 67 70 75 74 58 57 77 88 85 79 78 80 78 76 75 74 75 72 67 65 64 62 59 42 22 20 27 30 30 24 18 18 19 20 22 22 21 20 18 17 19 25 29 32 35 35 37 39 41 45 44 40 37 34 33
72 80 79 79 78 71 66 65 69 77 70 53 60 77 81 80 79 79 80 75 72 70 69 70 70 69 66 60 56 46 31 26 30 30 26 22 19 18 20 21 22 22 20 18 18 20 23 30 35 36 38 38 36 38 38 40 42 37 33 32 30 29
63 74 77 81 82 76 68 64 68 73 63 53 64 76 77 81 79 77 77 73 69 68 67 69 71 69 64 56 47 35 28 31 29 23 20 19 20 22 23 23 22 19 18 18 21 28 35 38 38 37 39 40 42 46 41 36 35 31 29 29 27 24
59 65 70 76 76 73 69 65 71 71 60 61 72 76 77 79 77 74 72 70 69 69 68 70 70 68 64 57 44 29 23 24 23 22 23 23 25 26 24 21 20 18 19 23 31 38 39 37 36 36 39 40 42 43 38 32 30 28 27 26 22 18
60 62 63 69 67 66 66 66 73 67 60 68 72 72 75 76 76 75 71 69 70 70 70 70 69 66 62 52 38 25 22 24 26 27 27 28 28 25 22 20 19 20 24 32 38 38 35 34 35 35 36 38 37 36 34 31 27 25 24 22 18 14
60 61 59 63 63 65 68 67 70 64 63 72 70 69 76 78 77 76 73 71 71 70 70 69 67 63 54 40 29 24 26 29 30 30 29 28 25 21 19 19 20 25 32 38 37 33 31 32 33 33 34 35 35 35 33 29 24 21 19 18 15 11
58 57 57 61 65 69 70 66 66 64 67 72 70 72 79 81 78 77 75 72 71 70 67 67 64 56 44 33 27 27 30 31 30 29 27 24 21 19 19 20 26 34 37 36 32 29 30 31 31 33 33 34 35 35 32 28 23 18 12 10 10 9
59 58 60 65 69 71 70 67 68 67 67 66 67 73 80 81 79 76 74 71 70 68 65 65 62 54 42 31 28 30 31 30 28 26 23 20 19 18 21 27 34 38 37 33 29 28 30 31 32 32 34 36 36 33 30 24 19 14 10 7 6 6
60 61 64 70 73 72 71 72 72 69 67 63 66 75 79 78 77 75 71 66 66 66 64 63 60 55 44 31 29 30 29 27 24 22 20 18 19 22 29 36 38 38 34 30 29 29 31 32 32 34 36 37 34 30 24 18 14 11 10 7 5 4
59 61 64 72 74 72 71 73 72 68 66 65 71 78 77 75 76 72 66 62 63 64 62 60 56 52 43 32 28 29 27 25 21 20 19 21 26 32 37 39 38 35 31 29 30 32 33 32 34 36 37 34 30 24 18 14 13 11 9 6 4 3
58 61 62 70 73 71 71 72 71 67 64 67 75 79 75 75 74 67 62 61 63 63 62 60 55 49 39 30 27 27 25 23 21 23 26 31 36 38 40 39 36 32 30 30 32 33 33 33 36 37 35 31 24 18 15 13 12 10 7 4 3 3
58 61 62 69 72 71 72 71 69 66 64 68 78 80 76 74 71 63 61 61 62 62 59 54 48 42 35 29 26 25 24 25 28 33 37 40 41 41 40 37 33 31 31 33 34 34 34 35 37 36 32 25 19 15 13 10 9 7 5 3 3 3
57 62 64 68 71 72 71 71 70 67 65 71 80 82 77 73 67 62 61 60 58 55 51 46 42 39 36 33 29 29 31 36 40 42 43 43 43 40 38 34 32 32 34 35 34 34 36 37 37 33 26 20 15 13 10 8 6 4 3 3 3 3
56 65 65 67 72 74 72 74 75 71 71 79 84 82 76 70 65 62 60 58 55 52 49 47 46 45 42 41 40 41 44 46 47 46 45 44 41 38 36 34 34 35 36 35 35 36 37 37 34 28 21 16 13 11 8 6 4 3 3 3 3 3
55 63 64 67 73 72 70 76 79 74 74 82 83 79 75 69 63 62 61 59 57 54 52 50 49 49 51 52 52 52 51 51 49 49 47 44 42 39 37 36 36 37 37 36 37 38 38 35 30 23 18 14 11 8 6 4 3 3 3 3 3 3
Wind_Speed
14 15 15 15 14 12 11 10 9 9 8 8 8 8 7 6 5 4 4 4 4 5 5 5 5 4 3 4 4 4 4 3 2 1 1 2 2 2 3 3 3 3 3 4 4 5 6 6 6 6 8 9 10 8 8 9 9 9 10 11 12 13
14 14 14 13 13 12 11 11 11 10 9 9 9 9 8 6 5 4 4 5 5 5 5 5 5 4 3 4 5 5 4 3 3 2 2 2 3 3 3 3 4 4 4 5 5 6 6 6 6 7 8 9 9 8 9 9 9 9 9 11 12 13
13 13 13 12 13 12 11 12 12 11 10 10 10 9 8 6 5 5 5 6 5 5 5 6 6 5 4 4 5 5 4 3 3 3 3 3 3 4 3 4 4 4 4 5 5 5 5 4 5 7 8 8 9 9 10 11 9 10 11 11 12 12
13 13 13 12 12 12 12 13 12 11 11 10 10 9 8 7 6 6 6 6 6 5 5 6 7 6 5 5 6 5 4 3 3 4 4 4 4 4 4 4 4 5 5 5 4 4 3 3 6 7 7 8 8 9 11 12 10 10 12 11 11 10
13 13 13 12 12 12 12 12 11 10 9 10 10 9 8 8 7 7 7 7 6 5 5 6 7 7 6 6 6 6 5 4 4 4 4 5 5 5 5 5 4 4 3 3 3 3 3 4 6 7 7 7 8 9 10 12 11 10 11 10 9 9
13 13 13 13 13 12 12 10 10 9 9 9 9 9 9 9 8 8 8 7 6 5 6 7 7 8 8 7 5 5 5 5 5 5 5 6 5 5 4 4 3 3 2 2 2 2 3 3 4 6 7 7 8 8 9 11 10 9 9 7 7 8
13 13 13 13 13 12 11 11 10 10 10 9 8 10 10 9 9 9 8 7 6 5 7 9 8 8 8 6 4 5 3 3 5 5 4 4 4 4 2 2 2 2 2 1 1 2 2 3 4 5 7 7 7 7 8 10 10 7 7 6 7 8
14 13 13 13 13 12 11 11 11 11 11 10 10 11 10 10 10 9 8 7 6 6 8 9 10 9 8 8 7 7 5 4 5 3 3 3 3 2 1 0 1 1 2 2 2 2 3 3 4 5 6 6 6 7 6 8 9 8 7 7 8 9
14 13 13 14 12 12 11 11 12 12 11 11 11 12 11 11 10 9 8 7 7 8 8 9 9 10 9 9 9 8 7 6 5 2 2 2 2 2 1 1 1 1 2 3 3 3 3 3 3 4 5 5 5 6 6 6 8 9 8 8 8 11
14 14 13 14 13 12 11 11 11 12 12 12 12 12 11 11 10 9 8 8 8 9 9 9 10 11 11 10 8 8 8 6 3 2 2 1 1 2 2 1 2 2 3 4 4 3 3 3 3 3 3 5 5 5 5 6 8 9 10 10 9 10
14 14 13 13 12 12 11 11 11 12 12 13 13 12 12 12 10 9 9 9 9 10 10 10 11 12 12 10 9 10 9 6 4 3 1 1 2 2 2 2 3 3 3 4 4 3 3 2 3 3 4 4 5 5 6 7 9 11 13 14 12 11
15 14 13 12 12 11 10 11 12 12 13 14 14 13 13 12 10 10 10 9 10 11 11 12 14 14 14 11 10 10 8 6 5 3 2 2 2 3 2 3 3 4 4 4 4 3 3 3 3 4 4 4 5 6 8 8 10 12 13 16 17 15
15 14 13 12 12 11 11 12 12 14 14 14 14 13 13 12 11 11 10 10 11 12 13 14 14 16 16 13 11 10 7 5 3 2 2 2 2 3 3 3 4 4 4 3 4 4 4 3 4 4 5 5 6 8 10 11 11 13 14 15 18 20
15 14 13 13 12 12 12 12 13 14 14 14 14 13 13 12 11 11 10 11 12 13 13 14 15 15 15 11 8 9 7 3 2 1 2 2 2 3 3 3 4 4 4 4 4 4 5 5 4 5 6 7 9 10 11 12 13 14 15 16 18 20
15 14 14 13 13 13 12 13 13 13 13 13 13 13 12 12 12 11 10 11 12 13 13 14 15 14 12 10 9 9 4 3 2 2 2 3 3 3 3 4 4 5 5 4 4 5 7 6 6 7 8 9 10 11 12 14 15 16 17 18 20 21
16 15 15 15 14 13 12 12 13 13 13 13 13 12 12 11 12 11 11 12 12 13 14 13 14 13 11 10 9 7 2 1 3 3 4 4 4 4 4 4 5 6 5 5 5 6 7 7 8 9 9 10 10 12 14 15 17 18 20 21 22 23
17 16 16 16 14 12 12 12 12 12 13 13 13 13 12 11 11 11 12 12 12 13 14 12 12 15 14 11 8 5 2 3 5 5 5 5 5 4 4 6 6 7 7 7 7 8 9 8 9 10 10 12 12 14 16 17 19 20 22 23 23 24
18 18 18 17 14 13 13 12 12 13 13 13 13 14 12 11 12 12 12 13 13 13 13 12 12 13 14 12 9 7 6 6 6 6 6 6 7 6 7 8 8 8 8 8 8 10 11 10 11 12 12 14 15 17 18 19 21 22 23 23 23 24
19 19 19 18 15 14 14 13 12 13 14 13 14 14 13 12 12 13 13 13 14 14 12 12 12 11 11 10 9 8 7 7 7 7 7 8 7 8 8 9 9 8 9 9 10 12 12 11 13 14 14 16 17 19 20 21 22 22 23 23 23 23
20 20 20 19 17 16 15 14 13 14 14 14 14 14 14 13 13 13 14 13 14 15 13 11 11 11 9 9 8 8 8 8 8 7 7 8 8 9 9 9 9 9 10 10 11 13 13 13 15 16 17 18 19 20 21 22 22 22 22 22 23 23
20 21 21 20 19 17 16 16 15 15 16 16 16 16 14 14 13 14 14 14 14 15 13 11 11 10 9 8 9 9 9 8 8 7 7 8 9 10 10 10 10 10 11 11 12 14 14 14 17 18 19 21 21 22 22 22 22 22 22 22 22 23
21 22 22 22 20 18 18 18 17 17 18 18 18 16 15 14 14 15 15 14 14 14 13 12 11 10 9 9 10 9 9 9 8 8 9 12 13 12 11 11 11 11 12 12 13 14 15 17 19 21 21 22 21 20 21 22 21 21 21 21 22 22
21 22 23 22 20 19 19 18 18 19 20 20 19 16 15 15 15 16 15 14 14 13 12 11 11 11 10 10 10 10 10 10 10 12 14 15 16 14 13 12 12 12 12 13 14 16 18 19 21 22 21 21 20 19 20 19 19 19 20 21 21 22
22 22 23 22 21 20 20 19 20 21 22 22 20 16 15 15 15 17 16 14 15 14 12 11 12 12 12 12 11 11 12 13 15 16 15 15 15 14 13 12 12 13 13 15 16 18 19 20 20 21 20 20 20 20 19 17 17 19 20 20 21 22
22 22 22 23 22 22 22 21 22 22 22 21 18 15 14 15 15 16 15 14 14 14 13 13 14 14 14 13 12 13 15 16 16 16 15 14 13 13 13 13 14 14 15 17 18 19 19 19 19 18 17 17 16 17 19 18 18 19 20 21 22 22
22 22 22 22 23 23 23 22 21 21 20 18 16 14 15 16 15 14 14 14 14 14 15 15 16 16 14 14 14 15 16 16 16 15 14 13 13 13 14 15 15 16 17 18 18 18 18 18 17 16 15 14 13 15 18 18 19 20 20 21 22 22
22 23 22 22 23 23 22 21 21 20 19 17 16 16 17 16 15 15 14 14 14 14 15 16 16 16 14 14 14 14 15 15 15 14 14 14 14 15 15 16 17 17 18 18 18 17 17 16 15 14 14 13 12 14 16 16 19 21 22 22 21 22
22 23 22 23 24 22 21 21 21 22 20 18 17 17 17 16 15 15 15 15 14 15 15 16 16 15 14 14 14 14 15 15 15 15 15 15 15 16 17 18 18 18 18 17 17 16 16 15 14 13 13 12 12 13 15 16 18 20 23 24 23 22
22 23 23 23 23 21 21 22 23 22 19 18 18 17 17 16 16 16 16 15 15 15 16 15 15 15 15 15 15 15 15 15 15 15 15 15 16 17 18 19 18 18 17 17 16 16 15 14 13 12 12 12 13 14 15 16 17 18 20 23 25 25
23 23 23 22 22 22 23 24 25 22 19 18 18 17 17 17 17 17 17 16 16 16 16 16 15 15 15 16 16 16 16 16 16 16 16 16 17 18 18 18 17 17 17 16 16 15 14 13 12 13 12 13 13 14 15 16 16 17 18 20 23 25
22 23 22 21 22 24 24 24 24 20 18 18 18 17 18 18 18 18 17 16 16 17 17 16 16 15 16 16 16 17 16 16 16 16 17 17 18 18 18 17 17 17 17 16 15 15 14 13 12 13 13 13 14 14 14 15 15 17 19 20 21 23
21 22 21 21 23 25 24 24 23 20 19 19 18 19 19 18 18 18 17 16 16 17 18 17 16 16 16 17 17 17 17 16 16 17 18 18 18 17 17 17 17 17 16 15 15 14 13 13 13 13 14 14 14 13 13 15 16 18 19 19 20 21
20 22 22 22 24 25 24 24 23 21 20 19 19 20 19 18 18 18 17 16 16 18 18 17 17 17 17 17 17 17 17 17 17 18 18 17 17 17 17 17 17 16 16 15 14 14 13 13 14 14 15 14 13 13 13 15 16 18 18 19 19 20
20 21 22 23 25 25 24 24 23 22 22 21 20 20 19 18 19 18 17 17 17 18 18 17 17 16 17 17 17 17 17 17 17 17 17 16 17 17 17 17 16 16 15 14 14 14 14 14 15 15 15 14 13 13 13 15 16 17 17 18 19 19
20 21 23 25 27 25 24 24 22 21 23 22 21 20 19 19 19 19 18 16 17 18 17 17 16 15 16 16 17 17 17 17 16 16 16 17 17 17 16 16 16 15 14 14 15 15 15 15 15 15 14 13 13 13 14 14 15 16 16 17 18 18
21 22 23 25 27 26 24 23 21 21 22 21 20 20 19 19 19 18 17 16 17 18 18 17 16 15 15 15 16 16 16 16 16 16 16 16 16 16 16 15 15 14 14 15 15 15 16 16 15 14 14 13 13 13 13 14 14 15 15 16 17 17
22 23 24 24 26 25 23 22 22 21 20 19 18 19 19 19 19 18 17 17 18 18 18 17 16 15 15 15 15 15 15 15 16 15 15 15 15 15 15 15 14 14 15 15 15 16 16 16 14 14 13 13 13 13 13 13 13 14 15 15 16 16
Wind_Direction
232 226 226 224 223 218 213 216 217 217 219 226 233 237 240 240 247 271 292 297 298 300 304 304 304 309 327 340 342 337 330 325 305 276 213 203 199 204 205 212 224 237 257 271 284 297 295 303 314 322 326 328 331 330 339 345 336 326 332 338 338 342
235 226 224 222 222 216 210 216 217 217 220 225 231 234 236 238 243 259 274 278 282 287 291 290 292 296 306 324 324 323 321 309 281 253 223 216 213 215 224 232 239 245 256 273 285 296 295 303 320 327 332 335 339 343 346 332 324 331 332 335 339 343
236 224 217 219 222 216 212 217 217 217 219 224 230 234 237 238 242 253 262 270 275 280 285 286 288 287 291 303 308 308 303 287 266 249 229 219 220 219 231 241 249 256 261 277 285 295 300 305 323 334 339 342 346 349 335 315 327 343 333 339 343 340
231 220 211 215 224 220 216 219 219 217 218 222 228 233 238 238 242 251 259 266 273 280 283 282 281 275 280 288 289 285 274 261 244 237 232 225 225 222 230 242 248 258 266 278 291 313 322 307 312 327 340 343 343 341 327 317 338 345 329 340 343 338
227 222 212 209 220 221 215 218 221 217 219 221 222 227 233 235 241 250 257 263 270 278 276 273 279 278 279 279 280 276 254 237 232 225 235 227 214 212 213 221 236 250 259 276 298 316 306 292 301 315 330 337 336 334 328 323 335 339 328 337 341 340
227 222 212 204 213 221 214 214 220 218 222 223 220 225 230 235 239 246 255 263 268 271 270 268 270 272 274 276 275 259 225 209 217 204 225 227 206 216 206 189 216 249 241 230 256 273 283 299 310 317 325 332 334 331 329 320 325 335 328 336 347 344
226 214 209 205 207 217 214 214 223 221 224 225 224 232 234 235 239 245 252 261 267 261 267 271 269 266 273 288 285 265 240 217 224 202 219 232 209 232 235 172 197 250 265 254 271 294 310 316 321 324 324 326 329 325 323 316 319 337 338 347 354 346
224 209 206 206 205 214 215 217 224 223 224 224 226 234 233 234 239 244 250 254 257 253 260 273 281 286 293 299 287 275 271 253 248 213 218 255 252 251 248 157 166 241 294 308 310 308 313 318 325 323 317 316 316 315 316 312 317 331 341 350 346 337
221 209 205 207 207 213 218 220 225 225 224 224 227 234 234 235 240 241 246 249 250 251 254 262 274 281 283 282 278 272 260 248 252 222 208 258 308 306 242 170 159 203 268 284 287 294 305 314 320 315 312 313 309 310 315 310 314 321 325 336 337 329
217 212 211 212 212 213 218 223 227 229 226 224 227 234 235 236 241 241 244 246 247 251 255 259 264 267 267 267 265 260 250 237 234 228 220 230 261 275 263 220 215 235 257 276 287 298 300 302 304 299 301 302 302 304 305 304 309 313 314 322 333 325
217 218 218 215 216 216 217 223 227 228 227 225 225 230 234 235 239 243 243 242 246 252 255 254 253 255 257 254 248 249 247 226 202 214 231 185 205 227 242 250 250 254 267 276 276 277 275 265 267 281 288 291 296 296 299 303 307 310 311 315 323 322
218 222 224 221 220 218 216 223 226 225 226 226 224 226 233 234 237 242 244 244 248 252 256 255 254 255 251 236 230 239 246 236 203 187 209 197 214 229 229 240 249 257 262 261 251 235 236 238 247 265 277 286 294 298 303 305 303 304 307 311 316 317
219 222 223 222 221 219 217 222 224 224 226 227 226 226 232 234 236 240 243 247 250 254 258 260 265 267 255 234 223 224 221 239 232 179 220 222 223 234 235 241 245 249 244 234 228 220 224 233 244 259 271 284 293 298 301 301 301 304 307 311 313 316
221 222 222 219 219 219 217 220 224 225 225 228 229 229 232 234 236 239 242 247 251 257 260 263 270 272 262 255 251 233 202 199 248 232 250 246 244 253 251 250 243 234 229 223 222 222 228 232 243 264 282 291 294 296 299 302 305 307 309 310 311 314
223 222 220 216 216 219 219 221 224 225 227 230 231 233 234 233 239 242 243 247 252 258 259 260 264 263 264 283 286 260 211 162 233 257 260 258 268 272 256 241 233 230 225 219 222 236 243 248 263 278 287 289 290 294 299 301 304 307 308 310 311 312
223 220 219 217 215 218 221 225 227 227 230 233 234 234 234 233 239 242 242 245 252 260 262 264 268 268 272 283 276 261 223 188 248 252 255 260 266 262 254 251 249 248 245 237 238 252 260 267 276 280 285 287 291 295 297 301 305 308 308 309 310 311
223 221 222 219 215 219 225 232 233 231 230 233 236 236 233 233 235 237 242 246 251 260 267 274 280 285 292 297 296 295 292 250 248 252 254 256 256 251 254 262 262 257 256 258 258 264 271 275 276 279 287 293 297 299 301 305 306 307 306 307 308 309
224 224 225 222 219 223 229 236 240 239 236 234 238 238 234 233 233 236 243 249 254 257 260 266 271 281 294 304 307 297 276 255 249 254 253 250 247 240 238 242 247 248 250 258 263 268 274 280 283 288 295 297 299 302 304 306 304 304 304 305 307 308
227 230 228 226 225 227 231 240 248 249 245 240 239 238 234 231 234 239 244 249 255 256 252 255 262 271 283 288 284 272 260 251 248 248 247 245 242 239 241 240 241 246 250 257 265 272 279 286 290 293 297 299 302 304 304 303 302 302 304 306 308 310
230 233 229 228 227 227 234 244 252 254 251 245 237 233 231 230 235 240 245 250 255 259 259 255 259 265 269 269 266 260 249 244 244 243 244 246 245 244 247 247 248 252 257 264 269 273 281 289 293 298 302 303 305 304 303 302 302 305 307 310 311 312
233 232 228 228 228 228 237 245 250 251 249 245 236 229 228 228 232 239 245 249 252 258 262 262 262 262 261 257 253 247 242 241 238 235 241 246 251 253 249 249 252 257 262 267 273 278 287 295 298 302 304 305 305 303 302 302 304 308 310 311 312 313
236 234 231 230 230 231 237 245 249 246 239 237 233 227 226 227 233 241 246 249 248 249 253 258 261 255 250 247 243 241 240 237 230 230 240 246 252 256 252 251 254 258 265 270 278 287 295 300 300 301 302 302 302 302 302 304 307 308 310 311 313 314
240 240 238 234 231 234 238 243 247 244 236 233 231 227 229 233 238 245 249 251 249 246 249 253 252 245 241 238 236 236 232 229 235 244 249 249 252 253 251 254 258 263 271 278 286 293 297 300 300 302 302 301 302 302 302 305 306 307 310 313 315 315
243 245 245 240 234 236 240 243 242 240 235 234 235 233 236 242 247 251 252 251 247 241 241 244 240 234 233 232 229 227 225 230 243 252 253 250 250 250 253 258 263 269 278 286 292 295 297 299 299 301 303 305 309 307 307 310 309 311 315 315 316 316
244 244 245 241 236 237 240 243 241 238 235 236 240 240 242 246 250 252 246 239 235 229 229 232 229 228 229 227 225 222 225 235 246 251 251 248 250 254 258 262 267 276 284 291 295 295 297 298 298 301 303 309 312 306 310 316 312 313 316 314 315 316
242 243 244 240 238 238 238 240 240 237 234 235 238 240 243 246 246 243 231 225 225 225 225 225 225 227 229 228 228 227 228 237 245 249 249 249 252 257 260 266 273 282 288 292 294 294 296 297 298 301 303 305 303 298 307 313 310 312 313 313 316 317
248 246 245 240 238 238 238 239 236 230 229 231 235 239 243 246 244 238 229 225 227 227 226 225 226 229 229 230 231 231 233 240 245 247 248 250 253 258 264 272 279 285 290 292 293 293 294 295 296 298 298 299 296 297 304 309 310 312 312 313 317 319
250 248 245 239 237 237 237 237 233 229 227 230 237 240 242 244 244 241 236 233 230 229 229 227 228 229 228 229 231 234 238 242 245 245 247 251 255 262 269 276 282 287 289 291 292 292 293 292 292 293 294 295 298 301 305 307 309 312 314 316 319 321
244 242 242 237 234 232 228 228 230 230 229 235 240 240 241 242 242 241 238 237 232 229 230 229 229 229 228 230 232 236 240 242 245 247 250 254 259 266 273 278 282 286 288 290 291 291 289 289 289 291 293 296 300 301 302 303 305 310 317 319 321 323
239 234 235 234 230 224 221 223 226 228 233 240 242 240 241 241 240 238 237 236 232 229 231 230 229 230 230 232 235 239 243 245 248 250 254 259 265 270 274 278 281 284 287 289 289 287 285 286 289 291 293 295 296 296 297 301 307 314 320 320 320 322
234 228 231 230 225 220 221 224 225 228 235 240 240 239 240 240 238 236 234 234 231 230 232 231 230 233 235 236 237 241 246 248 252 255 261 265 268 271 274 277 280 283 285 285 284 282 281 283 286 288 290 291 291 293 299 306 314 319 321 320 319 319
232 226 227 225 220 219 222 225 226 230 234 235 237 239 239 239 236 233 231 232 233 232 232 232 234 236 238 239 240 244 249 253 258 262 265 268 269 271 273 276 279 281 282 281 279 277 277 280 283 285 286 287 290 297 305 314 319 321 320 319 319 318
232 226 225 222 218 218 221 225 229 233 234 232 234 237 237 235 233 230 229 232 234 233 233 235 238 240 241 243 244 248 253 258 262 265 266 267 268 270 273 275 278 279 278 277 275 274 275 279 282 283 284 287 293 303 312 318 319 319 319 319 318 317
232 225 223 220 218 219 221 225 230 235 235 231 230 233 233 231 229 227 229 233 234 233 234 237 241 243 243 245 248 252 257 260 262 263 264 266 268 271 273 275 275 276 276 275 273 273 277 280 281 282 285 291 299 308 315 318 319 319 319 318 316 315
231 225 220 218 218 221 222 225 229 234 234 229 226 229 230 227 226 227 231 233 231 231 234 240 243 245 245 248 251 254 256 258 260 261 263 266 269 271 273 274 275 276 275 273 273 275 278 279 280 283 288 295 303 310 315 319 319 318 317 315 314 314
230 224 220 217 218 221 222 225 230 235 234 228 225 228 228 227 226 227 230 230 229 232 237 242 246 248 249 250 251 253 255 257 258 260 263 266 270 272 273 274 276 275 273 274 275 276 277 277 280 286 291 298 304 310 315 317 317 315 314 314 313 312
230 224 220 216 218 222 223 224 230 236 236 231 230 230 228 228 227 227 229 229 231 235 240 244 246 247 248 249 251 252 253 254 256 260 264 268 271 273 275 276 276 275 274 275 275 274 275 278 283 289 294 299 305 310 313 313 311 310 311 312 312 310